| time (UTC) | temp F | wind direction | speed MPH | gust MPH | rain 1hr in | rain 24hr in | rain mn in | humidity % | barometer mb |
| 20260506155233 | 52 | 0 | 3.0 | 13.0 | 0.00 | 0.47 | 0.47 | 83 | 1009.3 |
| 20260506153340 | 50 | 272 | 2.0 | 4.0 | 0.00 | 0.47 | 0.47 | 90 | 1009.3 |
| 20260506152837 | 50 | 22 | 2.0 | 5.0 | 0.00 | 0.47 | 0.47 | 90 | 1009.3 |
| 20260506152334 | 50 | 314 | 4.0 | 5.0 | 0.00 | 0.47 | 0.47 | 88 | 1008.9 |
| 20260506151833 | 50 | 339 | 2.0 | 10.0 | 0.00 | 0.47 | 0.47 | 90 | 1008.8 |
| 20260506151329 | 50 | 321 | 6.0 | 10.0 | 0.00 | 0.47 | 0.47 | 89 | 1008.7 |
| 20260506150826 | 50 | 277 | 5.0 | 13.0 | 0.00 | 0.47 | 0.47 | 90 | 1008.5 |
| 20260506150323 | 50 | 345 | 2.0 | 9.0 | 0.00 | 0.47 | 0.47 | 93 | 1008.5 |
| 20260506145820 | 49 | 299 | 0.0 | 4.0 | 0.00 | 0.47 | 0.47 | 93 | 1008.5 |
| 20260506145316 | 49 | 287 | 6.0 | 11.0 | 0.00 | 0.47 | 0.47 | 94 | 1008.4 |
| 20260506144814 | 49 | 273 | 7.0 | 10.0 | 0.00 | 0.47 | 0.47 | 94 | 1008.3 |
| 20260506144310 | 49 | 251 | 3.0 | 6.0 | 0.00 | 0.47 | 0.47 | 94 | 1008.3 |
| 20260506143809 | 49 | 7 | 4.0 | 4.0 | 0.00 | 0.47 | 0.47 | 95 | 1008.2 |
| 20260506143305 | 49 | 273 | 5.0 | 7.0 | 0.00 | 0.47 | 0.47 | 94 | 1008.1 |
| 20260506142804 | 49 | 266 | 8.0 | 10.0 | 0.00 | 0.47 | 0.47 | 95 | 1008.1 |
| 20260506142301 | 49 | 320 | 9.0 | 9.0 | 0.00 | 0.47 | 0.47 | 95 | 1008.0 |
| 20260506141800 | 49 | 333 | 1.0 | 4.0 | 0.00 | 0.47 | 0.47 | 96 | 1007.6 |
| 20260506141258 | 48 | 263 | 2.0 | 4.0 | 0.00 | 0.47 | 0.47 | 96 | 1007.8 |
| 20260506140755 | 48 | 311 | 3.0 | 4.0 | 0.00 | 0.47 | 0.47 | 96 | 1007.9 |
| 20260506140252 | 48 | 242 | 3.0 | 6.0 | 0.00 | 0.47 | 0.47 | 95 | 1007.7 |
| 20260506135749 | 48 | 255 | 3.0 | 5.0 | 0.00 | 0.47 | 0.47 | 96 | 1007.7 |
| 20260506135245 | 48 | 317 | 0.0 | 11.0 | 0.00 | 0.47 | 0.47 | 96 | 1007.6 |
| 20260506134742 | 48 | 17 | 6.0 | 8.0 | 0.00 | 0.47 | 0.47 | 96 | 1007.6 |
| 20260506134238 | 48 | 310 | 6.0 | 10.0 | 0.00 | 0.47 | 0.47 | 97 | 1007.5 |
| 20260506133736 | 48 | 321 | 6.0 | 8.0 | 0.00 | 0.47 | 0.47 | 97 | 1007.7 |
| 20260506133232 | 48 | 309 | 3.0 | 6.0 | 0.00 | 0.47 | 0.47 | 97 | 1007.7 |
| 20260506132729 | 48 | 324 | 4.0 | 5.0 | 0.00 | 0.47 | 0.47 | 97 | 1007.3 |
| 20260506132226 | 47 | 265 | 3.0 | 6.0 | 0.02 | 0.47 | 0.47 | 97 | 1007.2 |
| 20260506131724 | 47 | 10 | 0.0 | 4.0 | 0.02 | 0.47 | 0.47 | 97 | 1007.3 |
| 20260506131220 | 47 | 342 | 3.0 | 6.0 | 0.00 | 0.46 | 0.46 | 97 | 1007.9 |
| 20260506130717 | 47 | 33 | 2.0 | 4.0 | 0.00 | 0.46 | 0.46 | 97 | 1007.6 |
| 20260506130214 | 47 | 302 | 2.0 | 4.0 | 0.00 | 0.46 | 0.46 | 97 | 1007.5 |
| 20260506125712 | 46 | 297 | 2.0 | 9.0 | 0.00 | 0.46 | 0.46 | 97 | 1007.4 |
| 20260506125209 | 46 | 289 | 3.0 | 9.0 | 0.00 | 0.46 | 0.46 | 97 | 1007.5 |
| 20260506124707 | 47 | 284 | 8.0 | 10.0 | 0.00 | 0.46 | 0.46 | 97 | 1007.5 |
| 20260506124205 | 47 | 338 | 2.0 | 5.0 | 0.00 | 0.46 | 0.46 | 97 | 1007.4 |
| 20260506123702 | 47 | 359 | 6.0 | 7.0 | 0.00 | 0.46 | 0.46 | 97 | 1007.0 |
| 20260506123201 | 47 | 4 | 12.0 | 13.0 | 0.00 | 0.46 | 0.46 | 97 | 1006.9 |
| 20260506122657 | 47 | 304 | 2.0 | 11.0 | 0.00 | 0.46 | 0.46 | 97 | 1006.8 |
| 20260506122155 | 47 | 335 | 6.0 | 7.0 | 0.00 | 0.46 | 0.46 | 97 | 1006.5 |
| 20260506121652 | 47 | 287 | 5.0 | 6.0 | 0.00 | 0.46 | 0.46 | 97 | 1006.1 |
| 20260506121148 | 47 | 163 | 2.0 | 5.0 | 0.00 | 0.46 | 0.46 | 97 | 1006.0 |
| 20260506120647 | 47 | 46 | 4.0 | 11.0 | 0.02 | 0.46 | 0.46 | 97 | 1006.3 |
| 20260506120143 | 48 | 352 | 3.0 | 8.0 | 0.02 | 0.46 | 0.46 | 97 | 1006.7 |
| 20260506115642 | 48 | 317 | 3.0 | 6.0 | 0.00 | 0.46 | 0.46 | 96 | 1006.8 |
| 20260506115140 | 48 | 283 | 2.0 | 6.0 | 0.02 | 0.46 | 0.46 | 96 | 1006.7 |
| 20260506114637 | 48 | 350 | 2.0 | 6.0 | 0.02 | 0.46 | 0.46 | 96 | 1006.7 |
| 20260506114135 | 48 | 310 | 4.0 | 4.0 | 0.00 | 0.45 | 0.45 | 96 | 1006.7 |
| 20260506113633 | 48 | 345 | 4.0 | 4.0 | 0.00 | 0.45 | 0.45 | 96 | 1006.6 |
| 20260506113130 | 48 | 331 | 1.0 | 3.0 | 0.00 | 0.45 | 0.45 | 96 | 1006.5 |
| 20260506112626 | 48 | 337 | 2.0 | 8.0 | 0.00 | 0.45 | 0.45 | 96 | 1006.4 |
| 20260506112124 | 48 | 343 | 5.0 | 11.0 | 0.02 | 0.45 | 0.45 | 96 | 1006.2 |
| 20260506111621 | 49 | 11 | 7.0 | 9.0 | 0.02 | 0.45 | 0.45 | 96 | 1005.8 |
| 20260506111119 | 49 | 31 | 8.0 | 10.0 | 0.00 | 0.45 | 0.45 | 96 | 1005.6 |
| 20260506110616 | 49 | 327 | 4.0 | 8.0 | 0.00 | 0.45 | 0.45 | 96 | 1005.3 |
| 20260506110113 | 49 | 3 | 4.0 | 13.0 | 0.00 | 0.45 | 0.45 | 96 | 1005.7 |
| 20260506105609 | 50 | 310 | 4.0 | 8.0 | 0.02 | 0.45 | 0.45 | 96 | 1005.7 |
| 20260506105107 | 50 | 348 | 2.0 | 10.0 | 0.02 | 0.45 | 0.45 | 96 | 1005.2 |
| 20260506104605 | 50 | 288 | 9.0 | 11.0 | 0.02 | 0.45 | 0.45 | 96 | 1005.2 |
| 20260506104102 | 50 | 356 | 2.0 | 7.0 | 0.02 | 0.45 | 0.45 | 96 | 1005.7 |
| 20260506103559 | 50 | 302 | 3.0 | 8.0 | 0.02 | 0.44 | 0.44 | 96 | 1005.7 |
| 20260506103056 | 51 | 277 | 10.0 | 13.0 | 0.07 | 0.44 | 0.44 | 95 | 1005.5 |
| 20260506102554 | 52 | 309 | 8.0 | 10.0 | 0.12 | 0.43 | 0.43 | 96 | 1004.9 |
| 20260506102051 | 53 | 308 | 4.0 | 14.0 | 0.17 | 0.42 | 0.42 | 96 | 1005.1 |
| 20260506101548 | 53 | 307 | 8.0 | 12.0 | 0.21 | 0.41 | 0.41 | 96 | 1005.1 |
| 20260506101045 | 55 | 2 | 6.0 | 15.0 | 0.17 | 0.39 | 0.39 | 96 | 1005.2 |
| 20260506100543 | 56 | 256 | 6.0 | 7.0 | 0.09 | 0.38 | 0.38 | 98 | 1004.8 |
| 20260506100041 | 56 | 199 | 2.0 | 4.0 | 0.02 | 0.37 | 0.37 | 98 | 1004.7 |
| 20260506095540 | 56 | 216 | 4.0 | 4.0 | 0.07 | 0.36 | 0.36 | 97 | 1004.7 |
| 20260506095035 | 56 | 189 | 2.0 | 4.0 | 0.14 | 0.36 | 0.36 | 97 | 1004.7 |
| 20260506094533 | 56 | 200 | 0.0 | 5.0 | 0.12 | 0.35 | 0.35 | 97 | 1004.6 |
| 20260506094031 | 56 | 235 | 6.0 | 7.0 | 0.05 | 0.34 | 0.34 | 97 | 1004.5 |
| 20260506093529 | 56 | 223 | 4.0 | 6.0 | 0.02 | 0.33 | 0.33 | 97 | 1004.7 |
| 20260506093026 | 56 | 194 | 1.0 | 3.0 | 0.02 | 0.33 | 0.33 | 97 | 1004.6 |
| 20260506092524 | 56 | 192 | 2.0 | 5.0 | 0.05 | 0.32 | 0.32 | 97 | 1004.7 |
| 20260506092020 | 56 | 179 | 3.0 | 6.0 | 0.07 | 0.32 | 0.32 | 97 | 1004.6 |
| 20260506091519 | 56 | 184 | 2.0 | 9.0 | 0.09 | 0.32 | 0.32 | 97 | 1004.5 |
| 20260506091016 | 56 | 174 | 5.0 | 6.0 | 0.14 | 0.31 | 0.31 | 97 | 1004.4 |
| 20260506090514 | 56 | 214 | 2.0 | 4.0 | 0.09 | 0.30 | 0.30 | 97 | 1004.4 |
| 20260506090010 | 56 | 202 | 3.0 | 3.0 | 0.09 | 0.29 | 0.29 | 97 | 1004.7 |
| 20260506085507 | 56 | 171 | 3.0 | 8.0 | 0.12 | 0.28 | 0.28 | 97 | 1004.7 |
| 20260506085003 | 56 | 175 | 4.0 | 6.0 | 0.09 | 0.27 | 0.27 | 97 | 1004.7 |
| 20260506084500 | 56 | 219 | 4.0 | 9.0 | 0.09 | 0.26 | 0.26 | 97 | 1004.8 |
| 20260506083956 | 56 | 184 | 4.0 | 6.0 | 0.12 | 0.25 | 0.25 | 97 | 1005.0 |
| 20260506083454 | 56 | 180 | 3.0 | 6.0 | 0.14 | 0.24 | 0.24 | 97 | 1004.9 |
| 20260506082951 | 56 | 173 | 5.0 | 5.0 | 0.09 | 0.23 | 0.23 | 97 | 1005.1 |
| 20260506082448 | 56 | 191 | 3.0 | 4.0 | 0.09 | 0.22 | 0.22 | 97 | 1005.2 |
| 20260506081943 | 56 | 177 | 3.0 | 5.0 | 0.12 | 0.21 | 0.21 | 97 | 1005.3 |
| 20260506081442 | 56 | 193 | 3.0 | 5.0 | 0.14 | 0.20 | 0.20 | 97 | 1005.0 |
| 20260506080939 | 56 | 191 | 2.0 | 3.0 | 0.12 | 0.19 | 0.19 | 97 | 1005.2 |
| 20260506080436 | 56 | 185 | 2.0 | 2.0 | 0.09 | 0.18 | 0.18 | 96 | 1005.0 |
| 20260506073420 | 56 | 197 | 2.0 | 2.0 | 0.00 | 0.13 | 0.13 | 95 | 1004.9 |
| 20260506072917 | 56 | 246 | 1.0 | 2.0 | 0.00 | 0.13 | 0.13 | 95 | 1005.1 |
| 20260506072414 | 56 | 197 | 1.0 | 2.0 | 0.00 | 0.13 | 0.13 | 95 | 1004.7 |
| 20260506071912 | 56 | 177 | 1.0 | 3.0 | 0.00 | 0.13 | 0.13 | 95 | 1005.0 |
| 20260506071410 | 56 | 179 | 2.0 | 3.0 | 0.00 | 0.13 | 0.13 | 95 | 1004.9 |
| 20260506070906 | 56 | 177 | 2.0 | 4.0 | 0.00 | 0.13 | 0.13 | 95 | 1004.9 |
| 20260506070403 | 56 | 195 | 2.0 | 3.0 | 0.00 | 0.13 | 0.13 | 95 | 1005.0 |
| 20260506062340 | 57 | 179 | 2.0 | 4.0 | 0.02 | 0.12 | 0.12 | 95 | 1005.6 |
| 20260506061836 | 57 | 191 | 0.0 | 4.0 | 0.05 | 0.12 | 0.12 | 95 | 1005.7 |
| 20260506061333 | 57 | 197 | 1.0 | 5.0 | 0.05 | 0.12 | 0.12 | 94 | 1006.1 |
| 20260506060831 | 57 | 211 | 0.0 | 3.0 | 0.05 | 0.11 | 0.11 | 94 | 1005.8 |
| 20260506060329 | 57 | 272 | 0.0 | 4.0 | 0.05 | 0.11 | 0.11 | 94 | 1006.1 |
| 20260506051300 | 58 | 201 | 2.0 | 4.0 | 0.05 | 0.07 | 0.07 | 95 | 1006.7 |
| 20260506050759 | 58 | 205 | 2.0 | 4.0 | 0.05 | 0.07 | 0.07 | 95 | 1007.1 |
| 20260506050256 | 58 | 188 | 2.0 | 2.0 | 0.02 | 0.06 | 0.06 | 95 | 1006.9 |
| 20260506044746 | 58 | 186 | 2.0 | 3.0 | 0.05 | 0.06 | 0.06 | 95 | 1007.2 |
| 20260506044244 | 58 | 174 | 2.0 | 2.0 | 0.02 | 0.05 | 0.05 | 95 | 1007.2 |
| 20260506043741 | 58 | 165 | 0.0 | 2.0 | 0.05 | 0.05 | 0.05 | 94 | 1007.2 |
| 20260506043238 | 58 | 177 | 2.0 | 3.0 | 0.09 | 0.05 | 0.05 | 94 | 1007.2 |
| 20260506042737 | 58 | 183 | 2.0 | 2.0 | 0.09 | 0.04 | 0.04 | 94 | 1007.4 |
| 20260506042235 | 59 | 89 | 0.0 | 2.0 | 0.09 | 0.03 | 0.03 | 93 | 1007.4 |
| 20260506041733 | 59 | 207 | 2.0 | 3.0 | 0.07 | 0.02 | 0.02 | 93 | 1007.5 |
| 20260506041230 | 59 | 203 | 2.0 | 5.0 | 0.07 | 0.01 | 0.01 | 92 | 1007.6 |
| 20260506040727 | 59 | 212 | 4.0 | 4.0 | 0.07 | 0.01 | 0.01 | 92 | 1007.6 |
| 20260506040224 | 59 | 193 | 3.0 | 3.0 | 0.05 | 0.00 | 0.00 | 91 | 1007.4 |
| 20260506035721 | 59 | 227 | 3.0 | 4.0 | 0.02 | 0.02 | 0.02 | 90 | 1007.2 |
| 20260506035218 | 59 | 216 | 4.0 | 6.0 | 0.00 | 0.02 | 0.02 | 89 | 1007.3 |
| 20260506034714 | 59 | 265 | 2.0 | 3.0 | 0.02 | 0.02 | 0.02 | 89 | 1007.2 |
| 20260506034212 | 59 | 281 | 2.0 | 4.0 | 0.02 | 0.02 | 0.02 | 88 | 1007.2 |
| 20260506033709 | 60 | 294 | 3.0 | 8.0 | 0.00 | 0.01 | 0.01 | 87 | 1007.2 |
| 20260506033206 | 60 | 247 | 0.0 | 2.0 | 0.00 | 0.01 | 0.01 | 86 | 1007.2 |
| 20260506032703 | 60 | 294 | 5.0 | 5.0 | 0.00 | 0.01 | 0.01 | 86 | 1007.4 |
| 20260506032200 | 60 | 263 | 2.0 | 5.0 | 0.00 | 0.01 | 0.01 | 86 | 1007.4 |
| 20260506031657 | 60 | 269 | 3.0 | 5.0 | 0.00 | 0.01 | 0.01 | 85 | 1007.3 |
| 20260506031154 | 60 | 298 | 3.0 | 6.0 | 0.00 | 0.01 | 0.01 | 85 | 1007.2 |
| 20260506030652 | 60 | 297 | 2.0 | 8.0 | 0.00 | 0.01 | 0.01 | 84 | 1007.0 |
| 20260506030149 | 60 | 298 | 4.0 | 4.0 | 0.00 | 0.01 | 0.01 | 84 | 1007.4 |
| 20260506025646 | 60 | 285 | 4.0 | 5.0 | 0.00 | 0.01 | 0.01 | 83 | 1007.3 |
| 20260506025142 | 60 | 252 | 3.0 | 6.0 | 0.00 | 0.01 | 0.01 | 83 | 1007.4 |
| 20260506024640 | 60 | 281 | 3.0 | 3.0 | 0.00 | 0.01 | 0.01 | 82 | 1007.3 |
| 20260506024136 | 61 | 214 | 0.0 | 2.0 | 0.00 | 0.01 | 0.01 | 81 | 1007.1 |
| 20260506023632 | 61 | 201 | 0.0 | 0.0 | 0.00 | 0.01 | 0.01 | 81 | 1007.0 |
| 20260506023129 | 61 | 321 | 0.0 | 2.0 | 0.00 | 0.01 | 0.01 | 81 | 1007.1 |
| 20260506022627 | 61 | 257 | 2.0 | 3.0 | 0.00 | 0.01 | 0.01 | 81 | 1007.2 |
| 20260506022124 | 61 | 308 | 2.0 | 5.0 | 0.00 | 0.01 | 0.01 | 80 | 1007.0 |
| 20260506021622 | 61 | 187 | 0.0 | 2.0 | 0.00 | 0.01 | 0.01 | 80 | 1007.0 |
| 20260506021119 | 62 | 310 | 4.0 | 6.0 | 0.00 | 0.01 | 0.01 | 79 | 1007.2 |
| 20260506020616 | 62 | 16 | 3.0 | 6.0 | 0.00 | 0.01 | 0.01 | 78 | 1007.5 |
| 20260506020113 | 62 | 261 | 4.0 | 9.0 | 0.00 | 0.01 | 0.01 | 77 | 1007.2 |
| 20260506015611 | 62 | 343 | 4.0 | 6.0 | 0.00 | 0.01 | 0.01 | 76 | 1007.3 |
| 20260506015107 | 63 | 253 | 3.0 | 5.0 | 0.00 | 0.01 | 0.01 | 74 | 1007.3 |
| 20260506014605 | 64 | 5 | 6.0 | 9.0 | 0.00 | 0.01 | 0.01 | 72 | 1007.3 |
| 20260506014100 | 66 | 301 | 5.0 | 13.0 | 0.00 | 0.01 | 0.01 | 67 | 1007.3 |
| 20260506013559 | 68 | 297 | 7.0 | 9.0 | 0.00 | 0.01 | 0.01 | 53 | 1007.0 |
| 20260506013055 | 68 | 186 | 3.0 | 6.0 | 0.00 | 0.01 | 0.01 | 53 | 1006.7 |
| 20260506012551 | 68 | 220 | 2.0 | 5.0 | 0.00 | 0.01 | 0.01 | 53 | 1006.6 |
| 20260506012048 | 68 | 204 | 3.0 | 7.0 | 0.00 | 0.01 | 0.01 | 53 | 1006.5 |
| 20260506011546 | 68 | 198 | 5.0 | 12.0 | 0.00 | 0.01 | 0.01 | 53 | 1006.5 |
| 20260506011042 | 68 | 225 | 3.0 | 12.0 | 0.00 | 0.01 | 0.01 | 53 | 1006.3 |
| 20260506010542 | 68 | 231 | 4.0 | 6.0 | 0.00 | 0.01 | 0.01 | 53 | 1006.5 |
| 20260506010038 | 68 | 187 | 4.0 | 9.0 | 0.00 | 0.01 | 0.01 | 53 | 1006.2 |
| 20260506005535 | 68 | 244 | 4.0 | 6.0 | 0.00 | 0.01 | 0.01 | 53 | 1006.4 |
| 20260506005031 | 68 | 229 | 4.0 | 8.0 | 0.00 | 0.01 | 0.01 | 53 | 1006.3 |
| 20260506004528 | 68 | 180 | 4.0 | 11.0 | 0.00 | 0.01 | 0.01 | 53 | 1006.6 |
| 20260506004025 | 68 | 195 | 8.0 | 10.0 | 0.00 | 0.01 | 0.01 | 53 | 1006.5 |
| 20260506003521 | 68 | 184 | 5.0 | 6.0 | 0.00 | 0.01 | 0.01 | 54 | 1006.7 |
| 20260506003017 | 68 | 208 | 3.0 | 5.0 | 0.00 | 0.01 | 0.01 | 54 | 1006.4 |
| 20260506002514 | 68 | 202 | 3.0 | 8.0 | 0.00 | 0.01 | 0.01 | 55 | 1006.5 |
| 20260506002009 | 68 | 222 | 3.0 | 14.0 | 0.00 | 0.01 | 0.01 | 54 | 1006.4 |
| 20260506001506 | 69 | 182 | 1.0 | 9.0 | 0.00 | 0.01 | 0.01 | 54 | 1006.4 |
| 20260506001003 | 69 | 194 | 2.0 | 6.0 | 0.00 | 0.01 | 0.01 | 54 | 1006.4 |
| 20260506000501 | 69 | 219 | 3.0 | 4.0 | 0.00 | 0.01 | 0.01 | 54 | 1006.4 |
| 20260505235957 | 69 | 231 | 2.0 | 7.0 | 0.00 | 0.01 | 0.01 | 54 | 1006.6 |
| 20260505235456 | 69 | 199 | 4.0 | 5.0 | 0.00 | 0.01 | 0.01 | 53 | 1006.6 |
| 20260505234952 | 69 | 222 | 6.0 | 10.0 | 0.00 | 0.01 | 0.01 | 52 | 1006.5 |
| 20260505234450 | 70 | 218 | 6.0 | 10.0 | 0.00 | 0.01 | 0.01 | 53 | 1006.7 |
| 20260505233946 | 70 | 233 | 4.0 | 9.0 | 0.00 | 0.01 | 0.01 | 53 | 1006.4 |
| 20260505233444 | 70 | 190 | 5.0 | 14.0 | 0.00 | 0.01 | 0.01 | 54 | 1006.6 |
| 20260505232941 | 69 | 190 | 3.0 | 6.0 | 0.00 | 0.01 | 0.01 | 55 | 1006.3 |
| 20260505232439 | 70 | 218 | 4.0 | 4.0 | 0.00 | 0.01 | 0.01 | 54 | 1006.6 |
| 20260505231936 | 70 | 213 | 4.0 | 7.0 | 0.00 | 0.01 | 0.01 | 54 | 1006.5 |
| 20260505231433 | 70 | 212 | 3.0 | 6.0 | 0.00 | 0.01 | 0.01 | 54 | 1006.5 |
| 20260505230931 | 70 | 224 | 3.0 | 7.0 | 0.00 | 0.01 | 0.01 | 54 | 1006.2 |
| 20260505230429 | 70 | 182 | 3.0 | 6.0 | 0.00 | 0.01 | 0.01 | 54 | 1006.3 |
| 20260505225925 | 70 | 214 | 4.0 | 9.0 | 0.00 | 0.01 | 0.01 | 54 | 1006.4 |
| 20260505225422 | 70 | 220 | 3.0 | 6.0 | 0.00 | 0.01 | 0.01 | 54 | 1006.6 |
| 20260505224918 | 70 | 203 | 5.0 | 5.0 | 0.00 | 0.01 | 0.01 | 54 | 1006.8 |
| 20260505224415 | 70 | 227 | 4.0 | 7.0 | 0.00 | 0.01 | 0.01 | 53 | 1006.5 |
| 20260505223912 | 70 | 230 | 4.0 | 6.0 | 0.00 | 0.01 | 0.01 | 52 | 1006.6 |
| 20260505223409 | 70 | 211 | 9.0 | 16.0 | 0.00 | 0.01 | 0.01 | 51 | 1006.6 |
| 20260505222905 | 70 | 198 | 2.0 | 8.0 | 0.00 | 0.01 | 0.01 | 53 | 1006.6 |
| 20260505222401 | 70 | 215 | 8.0 | 13.0 | 0.00 | 0.01 | 0.01 | 53 | 1006.7 |
| 20260505221858 | 71 | 226 | 4.0 | 14.0 | 0.00 | 0.01 | 0.01 | 52 | 1006.7 |
| 20260505221355 | 71 | 245 | 1.0 | 8.0 | 0.00 | 0.01 | 0.01 | 54 | 1006.7 |
| 20260505220852 | 71 | 196 | 6.0 | 9.0 | 0.00 | 0.01 | 0.01 | 54 | 1006.7 |
| 20260505220349 | 71 | 209 | 6.0 | 12.0 | 0.00 | 0.01 | 0.01 | 53 | 1006.7 |
| 20260505215847 | 71 | 170 | 4.0 | 12.0 | 0.00 | 0.01 | 0.01 | 53 | 1006.6 |
| 20260505215345 | 71 | 228 | 4.0 | 6.0 | 0.00 | 0.01 | 0.01 | 54 | 1006.7 |
| 20260505214843 | 71 | 234 | 4.0 | 10.0 | 0.00 | 0.01 | 0.01 | 53 | 1006.8 |
| 20260505214340 | 71 | 206 | 4.0 | 11.0 | 0.00 | 0.01 | 0.01 | 53 | 1006.9 |
| 20260505213837 | 71 | 216 | 6.0 | 13.0 | 0.00 | 0.01 | 0.01 | 52 | 1006.7 |
| 20260505213335 | 70 | 237 | 6.0 | 15.0 | 0.00 | 0.01 | 0.01 | 52 | 1006.9 |
| 20260505212830 | 71 | 235 | 8.0 | 16.0 | 0.00 | 0.01 | 0.01 | 53 | 1006.9 |
| 20260505212327 | 71 | 218 | 7.0 | 14.0 | 0.00 | 0.01 | 0.01 | 54 | 1006.9 |
| 20260505211823 | 71 | 227 | 12.0 | 15.0 | 0.00 | 0.01 | 0.01 | 52 | 1006.8 |
| 20260505211321 | 71 | 238 | 9.0 | 14.0 | 0.00 | 0.01 | 0.01 | 53 | 1006.9 |
| 20260505210818 | 71 | 226 | 10.0 | 18.0 | 0.00 | 0.01 | 0.01 | 51 | 1007.0 |
| 20260505210315 | 71 | 210 | 8.0 | 20.0 | 0.00 | 0.01 | 0.01 | 53 | 1006.9 |
| 20260505205812 | 71 | 237 | 8.0 | 16.0 | 0.00 | 0.01 | 0.01 | 52 | 1007.0 |
| 20260505205310 | 71 | 253 | 7.0 | 11.0 | 0.00 | 0.01 | 0.01 | 53 | 1007.0 |
| 20260505204806 | 71 | 226 | 7.0 | 12.0 | 0.00 | 0.01 | 0.01 | 53 | 1007.0 |
| 20260505204304 | 71 | 225 | 9.0 | 13.0 | 0.00 | 0.01 | 0.01 | 53 | 1007.0 |
| 20260505203801 | 71 | 201 | 6.0 | 15.0 | 0.00 | 0.01 | 0.01 | 54 | 1006.8 |
| 20260505203258 | 71 | 245 | 16.0 | 19.0 | 0.00 | 0.01 | 0.01 | 52 | 1006.9 |
| 20260505202754 | 71 | 215 | 12.0 | 19.0 | 0.00 | 0.01 | 0.01 | 53 | 1006.9 |
| 20260505202250 | 71 | 263 | 10.0 | 13.0 | 0.00 | 0.01 | 0.01 | 53 | 1006.8 |
| 20260505201747 | 71 | 186 | 7.0 | 14.0 | 0.00 | 0.01 | 0.01 | 53 | 1006.9 |
| 20260505201244 | 71 | 202 | 5.0 | 7.0 | 0.00 | 0.01 | 0.01 | 54 | 1006.7 |
| 20260505200743 | 71 | 233 | 5.0 | 13.0 | 0.00 | 0.01 | 0.01 | 56 | 1006.7 |
| 20260505200240 | 71 | 213 | 6.0 | 14.0 | 0.00 | 0.01 | 0.01 | 53 | 1007.1 |
| 20260505195735 | 71 | 238 | 3.0 | 7.0 | 0.00 | 0.01 | 0.01 | 54 | 1006.9 |
| 20260505195233 | 71 | 209 | 4.0 | 13.0 | 0.00 | 0.01 | 0.01 | 53 | 1007.0 |
| 20260505194730 | 70 | 144 | 2.0 | 10.0 | 0.00 | 0.01 | 0.01 | 53 | 1007.1 |
| 20260505194226 | 70 | 227 | 5.0 | 7.0 | 0.00 | 0.01 | 0.01 | 53 | 1007.3 |
| 20260505193722 | 70 | 234 | 5.0 | 6.0 | 0.00 | 0.01 | 0.01 | 54 | 1007.2 |
| 20260505193219 | 70 | 254 | 6.0 | 14.0 | 0.00 | 0.01 | 0.01 | 53 | 1007.3 |
| 20260505192718 | 70 | 205 | 9.0 | 11.0 | 0.00 | 0.01 | 0.01 | 53 | 1007.2 |
| 20260505192215 | 70 | 237 | 5.0 | 13.0 | 0.00 | 0.01 | 0.01 | 52 | 1007.3 |
| 20260505191713 | 70 | 243 | 11.0 | 13.0 | 0.00 | 0.01 | 0.01 | 51 | 1007.4 |
| 20260505191211 | 71 | 250 | 14.0 | 17.0 | 0.00 | 0.01 | 0.01 | 51 | 1007.4 |
| 20260505190707 | 71 | 224 | 11.0 | 13.0 | 0.00 | 0.01 | 0.01 | 51 | 1007.6 |
| 20260505190207 | 71 | 228 | 8.0 | 16.0 | 0.00 | 0.01 | 0.01 | 52 | 1007.6 |
| 20260505185704 | 71 | 234 | 13.0 | 17.0 | 0.00 | 0.01 | 0.01 | 51 | 1007.6 |
| 20260505185200 | 71 | 214 | 6.0 | 13.0 | 0.00 | 0.01 | 0.01 | 52 | 1007.5 |
| 20260505184657 | 71 | 239 | 8.0 | 17.0 | 0.00 | 0.01 | 0.01 | 50 | 1007.4 |
| 20260505184154 | 71 | 221 | 14.0 | 15.0 | 0.00 | 0.01 | 0.01 | 50 | 1007.4 |
| 20260505183651 | 71 | 225 | 6.0 | 14.0 | 0.00 | 0.01 | 0.01 | 51 | 1007.7 |
| 20260505183148 | 72 | 239 | 6.0 | 16.0 | 0.00 | 0.01 | 0.01 | 49 | 1007.4 |
| 20260505182645 | 72 | 218 | 14.0 | 16.0 | 0.00 | 0.01 | 0.01 | 51 | 1007.6 |
| 20260505182142 | 72 | 232 | 11.0 | 19.0 | 0.00 | 0.01 | 0.01 | 50 | 1007.6 |
| 20260505181638 | 72 | 253 | 11.0 | 17.0 | 0.00 | 0.01 | 0.01 | 49 | 1007.6 |
| 20260505181136 | 72 | 248 | 11.0 | 14.0 | 0.00 | 0.01 | 0.01 | 50 | 1007.5 |
| 20260505180631 | 72 | 216 | 13.0 | 20.0 | 0.00 | 0.01 | 0.01 | 49 | 1007.6 |
| 20260505180129 | 72 | 245 | 8.0 | 15.0 | 0.00 | 0.01 | 0.01 | 50 | 1007.4 |
| 20260505175625 | 72 | 194 | 7.0 | 18.0 | 0.00 | 0.01 | 0.01 | 49 | 1007.6 |
| 20260505175121 | 72 | 204 | 4.0 | 16.0 | 0.00 | 0.01 | 0.01 | 51 | 1007.7 |
| 20260505174618 | 72 | 229 | 8.0 | 8.0 | 0.00 | 0.01 | 0.01 | 53 | 1007.8 |
| 20260505174114 | 71 | 218 | 9.0 | 17.0 | 0.00 | 0.01 | 0.01 | 52 | 1007.7 |
| 20260505173611 | 71 | 214 | 10.0 | 15.0 | 0.00 | 0.01 | 0.01 | 53 | 1007.7 |
| 20260505173108 | 71 | 241 | 8.0 | 13.0 | 0.00 | 0.01 | 0.01 | 52 | 1007.6 |
| 20260505172606 | 69 | 229 | 13.0 | 23.0 | 0.00 | 0.01 | 0.01 | 54 | 1007.7 |
| 20260505172102 | 69 | 241 | 7.0 | 18.0 | 0.00 | 0.01 | 0.01 | 54 | 1007.8 |
| 20260505171556 | 68 | 195 | 13.0 | 20.0 | 0.00 | 0.01 | 0.01 | 52 | 1007.9 |
| 20260505171054 | 68 | 214 | 16.0 | 17.0 | 0.00 | 0.01 | 0.01 | 53 | 1007.7 |
| 20260505170551 | 68 | 204 | 17.0 | 20.0 | 0.00 | 0.01 | 0.01 | 52 | 1007.6 |
| 20260505170047 | 69 | 238 | 9.0 | 19.0 | 0.00 | 0.01 | 0.01 | 53 | 1007.6 |
| 20260505165542 | 69 | 221 | 14.0 | 21.0 | 0.00 | 0.01 | 0.01 | 52 | 1007.6 |
| 20260505165038 | 70 | 205 | 8.0 | 20.0 | 0.00 | 0.01 | 0.01 | 52 | 1007.5 |
| 20260505164534 | 71 | 191 | 8.0 | 16.0 | 0.00 | 0.01 | 0.01 | 51 | 1007.3 |
| 20260505164032 | 71 | 236 | 8.0 | 24.0 | 0.00 | 0.01 | 0.01 | 49 | 1007.3 |
| 20260505163531 | 72 | 234 | 10.0 | 14.0 | 0.00 | 0.01 | 0.01 | 51 | 1007.1 |
| 20260505163027 | 72 | 203 | 4.0 | 17.0 | 0.00 | 0.01 | 0.01 | 51 | 1007.2 |
| 20260505162520 | 72 | 195 | 6.0 | 15.0 | 0.00 | 0.01 | 0.01 | 51 | 1007.2 |
| 20260505162017 | 72 | 220 | 8.0 | 11.0 | 0.00 | 0.01 | 0.01 | 50 | 1007.0 |
| 20260505161514 | 72 | 187 | 7.0 | 11.0 | 0.00 | 0.01 | 0.01 | 50 | 1007.0 |
| 20260505161011 | 72 | 228 | 6.0 | 8.0 | 0.00 | 0.01 | 0.01 | 53 | 1007.1 |
| 20260505160509 | 72 | 238 | 7.0 | 11.0 | 0.00 | 0.01 | 0.01 | 49 | 1007.2 |